Location: Arbon
(43.0005°N, 0.7472°E)
Time: 13:32:34
(UTC+00:00)

Vanguard 1 - Pass Details

Date: 30 November 2020
Orbit: 648 x 3834 km, 34.3° (Epoch: 23 January)

Event Time Altitude Azimuth Distance (km) Brightness Sun altitude
Rises 08:55:08 0° 270° (W) 4,390 13.0 14.3°
Reaches altitude 10° 08:57:44 10° 263° (W) 3,728 12.8 14.6°
Maximum altitude 09:07:11 43° 196° (SSW) 2,931 13.1 15.7°
Drops below altitude 10° 09:23:28 10° 134° (SE) 6,265 16.2 17.4°
Sets 09:29:29 0° 129° (SE) 7,631 16.0 18.1°
